Location: Bonnesvalyn
(49.1218°N, 3.3177°E)
Time: 08:52:17
(UTC+00:00)

Cosmos 1758 Rocket - Pass Details

Date: 09 February 2023
Orbit: 601 x 634 km, 82.5° (Epoch: 22 March)

Event Time Altitude Azimuth Distance (km) Brightness Sun altitude
Rises 19:03:18 0° 191° (S) 2,854 7.1 -21.1°
Reaches altitude 10° 19:05:30 10° 193° (SSW) 1,960 6.2 -21.5°
Maximum altitude 19:09:50 79° 280° (W) 631 3.6 -22.2°
Drops below altitude 10° 19:14:16 10° 8° (N) 1,997 6.1 -22.9°
Sets 19:16:32 0° 9° (N) 2,913 7.0 -23.3°
